Location: Pebble Beach Sunset Acres
(33.0837°N, 96.4508°W)
Time: 15:43:38
(UTC+00:00)

ISS - Visible Passes

Search period start: 19 May 2022 00:00
Search period end: 29 May 2022 00:00
Orbit: 415 x 421 km, 51.6° (Epoch: 19 May)

Date Brightness Start Highest point End Pass type
(mag) Time Alt. Az. Time Alt. Az. Time Alt. Az.
20 May -0.5 01:53:59 10° NW 01:55:25 12° NNW 01:56:50 10° N visible
27 May -0.8 04:25:08 10° NNW 04:26:05 15° N 04:26:05 15° N visible
28 May -1.2 03:37:39 10° N 03:39:34 14° NNE 03:39:40 14° NNE visible
